Auburn, IN

9:57 PM EDT on October 17, 2019 (GMT -0400)
Auburn

Weather History for KGWB - May, 2019

Change the Weather History Date:

Sunday, May 5, 2019

  Actual Average (KFWA) Record (KFWA)
Temperature  
Mean Temperature 54 °F -  
Max Temperature 69 °F 69 °F 89 °F (1952)
Min Temperature 39 °F 45 °F 29 °F (1973)
Degree Days  
Heating Degree Days 11    
Growing Degree Days 4 (Base 50)    
Moisture  
Dew Point 44 °F    
Average Humidity 70    
Maximum Humidity 100    
Minimum Humidity 38    
Precipitation  
Precipitation 0.00 in - - ()
Sea Level Pressure  
Sea Level Pressure 29.90 in    
Wind  
Wind Speed 1 mph (WNW)    
Max Wind Speed 10 mph    
Max Gust Speed 20 mph    
Visibility 8 miles    
Events Fog    
Averages and records for this station are not official NWS values.
T = Trace of Precipitation, MM = Missing Value Source: NWS Daily Summary

Daily Weather History Graph

Daily Weather History Graph

Search for Another Location

Airport or City:

Astronomy

May. 05, 2019 Rise Set
Actual Time 6:32 AM EDT 8:41 PM EDT
Civil Twilight 6:02 AM EDT 9:12 PM EDT
Nautical Twilight 5:25 AM EDT 9:49 PM EDT
Astronomical Twilight 4:44 AM EDT 10:30 PM EDT
Moon 7:17 AM EDT (5/5) 9:34 PM EDT (5/5)
Length of Visible Light 15h 09m
Length of Day
14h 08m
New Moon, 1% of the Moon is Illuminated
May 5
New Moon
May 11
First Quarter
May 18
Full
May 26
Last Quarter
Jun 3
New

Hourly Weather History & Observations

Time (EDT) Temp. Dew Point Humidity Pressure Visibility Wind Dir Wind Speed Gust Speed Precip Events Conditions
12:15 AM 46.4 °F 46.4 °F 100% 29.92 in 10.0 mi Calm Calm - N/A   Clear
12:35 AM 46.4 °F 46.4 °F 100% 29.92 in 7.0 mi Calm Calm - N/A   Clear
12:55 AM 44.6 °F 44.6 °F 100% 29.92 in 4.0 mi Calm Calm - N/A   Clear
1:15 AM 44.6 °F 44.6 °F 100% 29.92 in 4.0 mi Calm Calm - N/A   Clear
1:35 AM 44.6 °F 44.6 °F 100% 29.92 in 7.0 mi Calm Calm - N/A   Clear
1:55 AM 44.6 °F 44.6 °F 100% 29.92 in 7.0 mi Calm Calm - N/A   Clear
2:15 AM 42.8 °F 42.8 °F 100% 29.91 in 7.0 mi Calm Calm - N/A   Clear
2:35 AM 42.8 °F 42.8 °F 100% 29.91 in 0.8 mi Calm Calm - N/A   Mist
2:55 AM 42.8 °F 42.8 °F 100% 29.91 in 1.2 mi Calm Calm - N/A   Mist
3:15 AM 42.8 °F 42.8 °F 100% 29.90 in 1.2 mi Calm Calm - N/A   Mist
3:35 AM 42.8 °F 42.8 °F 100% 29.90 in 0.8 mi Calm Calm - N/A   Mist
3:55 AM 42.8 °F 42.8 °F 100% 29.90 in 0.8 mi Calm Calm - N/A   Mist
4:15 AM 41.0 °F 41.0 °F 100% 29.90 in 0.8 mi Calm Calm - N/A   Mist
4:35 AM 41.0 °F 41.0 °F 100% 29.89 in 0.8 mi Calm Calm - N/A   Mist
4:55 AM 41.0 °F 41.0 °F 100% 29.90 in 0.5 mi Calm Calm - N/A Fog Fog
5:15 AM 41.0 °F 41.0 °F 100% 29.90 in 1.0 mi Calm Calm - N/A   Mist
5:35 AM 39.2 °F 39.2 °F 100% 29.90 in 0.2 mi Calm Calm - N/A Fog Fog
5:55 AM 39.2 °F 39.2 °F 100% 29.89 in 0.5 mi Calm Calm - N/A Fog Fog
6:15 AM 39.2 °F 39.2 °F 100% 29.89 in 0.8 mi Calm Calm - N/A   Mist
6:35 AM 39.2 °F 39.2 °F 100% 29.89 in 0.2 mi Calm Calm - N/A Fog Fog
6:55 AM 39.2 °F 39.2 °F 100% 29.90 in 0.2 mi Calm Calm - N/A Fog Fog
7:15 AM 41.0 °F 41.0 °F 100% 29.90 in 1.2 mi Calm Calm - N/A   Mist
7:35 AM 42.8 °F 42.8 °F 100% 29.91 in 5.0 mi Calm Calm - N/A   Clear
7:55 AM 44.6 °F 44.6 °F 100% 29.91 in 7.0 mi Calm Calm - N/A   Clear
8:15 AM 46.4 °F 46.4 °F 100% 29.92 in 10.0 mi Calm Calm - N/A   Clear
8:35 AM 48.2 °F 44.6 °F 87% 29.92 in 10.0 mi Calm Calm - N/A   Clear
8:55 AM 51.8 °F 44.6 °F 76% 29.93 in 10.0 mi Calm Calm - N/A   Clear
9:15 AM 53.6 °F 46.4 °F 77% 29.93 in 10.0 mi Calm Calm - N/A   Clear
9:35 AM 53.6 °F 46.4 °F 77% 29.93 in 10.0 mi Calm Calm - N/A   Clear
9:55 AM 55.4 °F 46.4 °F 72% 29.92 in 10.0 mi Calm Calm - N/A   Clear
10:15 AM 57.2 °F 46.4 °F 67% 29.92 in 10.0 mi Calm Calm - N/A   Clear
10:35 AM 59.0 °F 46.4 °F 63% 29.92 in 10.0 mi Calm Calm - N/A   Clear
10:55 AM 60.8 °F 46.4 °F 59% 29.92 in 10.0 mi Calm Calm - N/A   Clear
11:15 AM 60.8 °F 46.4 °F 59% 29.91 in 10.0 mi NE 5.8 mph - N/A   Clear
11:30 AM 62.6 °F 46.4 °F 55% 29.91 in 10.0 mi NE 5.8 mph - N/A   Clear
11:55 AM 62.6 °F 46.4 °F 55% 29.91 in 10.0 mi Calm Calm - N/A   Clear
12:15 PM 62.6 °F 46.4 °F 55% 29.91 in 10.0 mi NNW 5.8 mph - N/A   Clear
12:35 PM 64.4 °F 46.4 °F 52% 29.91 in 10.0 mi East 5.8 mph - N/A   Mostly Cloudy
12:55 PM 64.4 °F 44.6 °F 49% 29.92 in 10.0 mi Calm Calm - N/A   Scattered Clouds
1:15 PM 62.6 °F 42.8 °F 48% 29.91 in 10.0 mi Calm Calm - N/A   Scattered Clouds
1:35 PM 66.2 °F 44.6 °F 46% 29.90 in 10.0 mi WNW 3.5 mph - N/A   Scattered Clouds
1:55 PM 68.0 °F 44.6 °F 43% 29.90 in 10.0 mi NW 6.9 mph - N/A   Scattered Clouds
2:15 PM 66.2 °F 42.8 °F 43% 29.90 in 10.0 mi NW 3.5 mph - N/A   Mostly Cloudy
2:35 PM 66.2 °F 44.6 °F 46% 29.89 in 10.0 mi NW 5.8 mph - N/A   Scattered Clouds
2:55 PM 68.0 °F 44.6 °F 43% 29.89 in 10.0 mi West 6.9 mph - N/A   Scattered Clouds
3:15 PM 68.0 °F 44.6 °F 43% 29.89 in 10.0 mi Calm Calm - N/A   Scattered Clouds
3:35 PM 69.8 °F 44.6 °F 40% 29.88 in 10.0 mi West 8.1 mph - N/A   Scattered Clouds
3:55 PM 69.8 °F 44.6 °F 40% 29.88 in 10.0 mi West 8.1 mph - N/A   Clear
4:15 PM 68.0 °F 42.8 °F 40% 29.87 in 10.0 mi WSW 8.1 mph - N/A   Scattered Clouds
4:35 PM 68.0 °F 42.8 °F 40% 29.87 in 10.0 mi WSW 3.5 mph - N/A   Scattered Clouds
4:55 PM 69.8 °F 42.8 °F 38% 29.87 in 10.0 mi Calm Calm - N/A   Clear
5:15 PM 69.8 °F 44.6 °F 40% 29.86 in 10.0 mi WNW 6.9 mph - N/A   Clear
5:35 PM 69.8 °F 44.6 °F 40% 29.87 in 10.0 mi West 10.4 mph 19.6 mph N/A   Scattered Clouds
5:55 PM 69.8 °F 44.6 °F 40% 29.87 in 10.0 mi West 5.8 mph - N/A   Clear
6:15 PM 68.0 °F 42.8 °F 40% 29.87 in 10.0 mi WNW 5.8 mph - N/A   Clear
6:35 PM 68.0 °F 42.8 °F 40% 29.87 in 10.0 mi WSW 3.5 mph - N/A   Clear
6:55 PM 68.0 °F 42.8 °F 40% 29.87 in 10.0 mi West 3.5 mph - N/A   Clear
7:15 PM 68.0 °F 42.8 °F 40% 29.87 in 10.0 mi West 3.5 mph - N/A   Clear
7:35 PM 68.0 °F 44.6 °F 43% 29.87 in 10.0 mi West 4.6 mph - N/A   Clear
7:55 PM 66.2 °F 44.6 °F 46% 29.87 in 10.0 mi West 3.5 mph - N/A   Clear
8:15 PM 64.4 °F 44.6 °F 49% 29.88 in 10.0 mi Calm Calm - N/A   Clear
8:35 PM 64.4 °F 44.6 °F 49% 29.88 in 10.0 mi Calm Calm - N/A   Clear
8:55 PM 62.6 °F 44.6 °F 52% 29.89 in 10.0 mi Calm Calm - N/A   Clear
9:15 PM 62.6 °F 44.6 °F 52% 29.89 in 10.0 mi Calm Calm - N/A   Clear
9:35 PM 59.0 °F 44.6 °F 59% 29.91 in 10.0 mi Calm Calm - N/A   Clear
9:55 PM 57.2 °F 46.4 °F 67% 29.91 in 10.0 mi Calm Calm - N/A   Clear
10:15 PM 59.0 °F 44.6 °F 59% 29.92 in 10.0 mi WSW 3.5 mph - N/A   Clear
10:35 PM 57.2 °F 46.4 °F 67% 29.93 in 10.0 mi Calm Calm - N/A   Clear
10:55 PM 53.6 °F 46.4 °F 77% 29.93 in 10.0 mi Calm Calm - N/A   Clear
11:15 PM 53.6 °F 46.4 °F 77% 29.93 in 10.0 mi Calm Calm - N/A   Clear
11:35 PM 53.6 °F 46.4 °F 77% 29.93 in 10.0 mi Calm Calm - N/A   Clear
11:55 PM 53.6 °F 46.4 °F 77% 29.92 in 10.0 mi Calm Calm - N/A   Clear